Location: Camoruquito
(9.9001°N, 67.3564°W)
Time: 04:15:58
(UTC+00:00)

Cosmos 1766 - Pass Details

Date: 14 April 2024
Orbit: 487 x 505 km, 82.5° (Epoch: 21 May)

Event Time Altitude Azimuth Distance (km) Brightness Sun altitude
Rises 09:20:46 0° 349° (NNW) 2,544 6.7 -15.0°
Reaches altitude 10° 09:22:54 10° 344° (NNW) 1,664 5.7 -14.5°
Maximum altitude 09:26:27 54° 267° (W) 598 3.1 -13.6°
Drops below altitude 10° 09:30:01 10° 189° (S) 1,670 5.6 -12.8°
Sets 09:32:09 0° 184° (S) 2,554 6.6 -12.3°
